Broken Bow, NE

2:34 AM CDT on June 28, 2017 (GMT -0500)
Broken Bow Municipal

Weather History for KBBW - May, 2014

Change the Weather History Date:

Tuesday, May 13, 2014

  Actual Average Record
Temperature  
Mean Temperature 50 °F 58 °F  
Max Temperature 64 °F 70 °F 94 °F (1932)
Min Temperature 35 °F 45 °F 22 °F (1964)
Degree Days  
Heating Degree Days 15 8  
Month to date heating degree days 143 127  
Cooling Degree Days 0 1  
Month to date cooling degree days 1 6  
Year to date cooling degree days 1 7  
Moisture  
Dew Point 28 °F    
Average Humidity 49    
Maximum Humidity 76    
Minimum Humidity 25    
Precipitation  
Precipitation 0.00 in 0.12 in 1.15 in (1942)
Sea Level Pressure  
Sea Level Pressure 30.28 in    
Wind  
Wind Speed 16 mph (NNW)    
Max Wind Speed 29 mph    
Max Gust Speed 37 mph    
Visibility 10 miles    
Events      
T = Trace of Precipitation, MM = Missing Value Source: NWS Daily Summary

Daily Weather History Graph

Daily Weather History Graph

Search for Another Location

Airport or City:

Trip Planner

Search our weather history database for the weather conditions in past years. The results will help you decide how hot, cold, wet, or windy it might be!

Date:

Astronomy

May. 13, 2014 Rise Set
Actual Time 6:21 AM CDT 8:48 PM CDT
Civil Twilight 5:50 AM CDT 9:20 PM CDT
Nautical Twilight 5:11 AM CDT 9:59 PM CDT
Astronomical Twilight 4:27 AM CDT 10:43 PM CDT
Moon 7:51 PM CDT (5/13) 5:40 AM CDT (5/13)
Length of Visible Light 15h 30m
Length of Day
14h 27m
Waxing Gibbous, 99% of the Moon is Illuminated
May 13
Waxing Gibbous
May 14
Full
May 21
Last Quarter
May 28
New
Jun 5
First Quarter

Hourly Weather History & Observations

Time (CDT) Temp. Windchill Dew Point Humidity Pressure Visibility Wind Dir Wind Speed Gust Speed Precip Events Conditions
12:53 AM 43.0 °F 35.7 °F 30.0 °F 60% 30.22 in 10.0 mi NNW 15.0 mph - N/A   Clear
1:53 AM 39.9 °F 33.9 °F 30.9 °F 70% 30.25 in 10.0 mi NW 9.2 mph - N/A   Clear
2:53 AM 39.0 °F 31.8 °F 30.9 °F 73% 30.25 in 10.0 mi NW 11.5 mph - N/A   Clear
3:53 AM 37.9 °F 30.9 °F 30.0 °F 73% 30.25 in 10.0 mi NW 10.4 mph - N/A   Clear
4:53 AM 36.0 °F 30.3 °F 28.9 °F 76% 30.28 in 10.0 mi WNW 6.9 mph - N/A   Clear
5:53 AM 37.0 °F 28.1 °F 28.9 °F 73% 30.27 in 10.0 mi NW 15.0 mph - N/A   Clear
6:53 AM 37.0 °F 27.7 °F 28.9 °F 73% 30.28 in 10.0 mi NW 16.1 mph - N/A   Clear
7:53 AM 41.0 °F 33.1 °F 30.2 °F 65% 30.26 in 10.0 mi NW 15.0 mph - N/A   Clear
8:53 AM 46.0 °F 38.8 °F 32.0 °F 58% 30.28 in 10.0 mi NW 18.4 mph - N/A   Clear
10:53 AM 55.4 °F - 28.4 °F 36% 30.30 in 10.0 mi NW 15.0 mph 24.2 mph N/A   Clear
11:53 AM 57.9 °F - 28.9 °F 33% 30.30 in 10.0 mi NNW 19.6 mph 28.8 mph N/A   Scattered Clouds
12:53 PM 59.0 °F - 26.1 °F 28% 30.29 in 10.0 mi NNW 20.7 mph 27.6 mph N/A   Scattered Clouds
1:53 PM 60.1 °F - 26.1 °F 27% 30.29 in 10.0 mi NNW 21.9 mph 28.8 mph N/A   Scattered Clouds
2:53 PM 59.0 °F - 24.1 °F 26% 30.29 in 10.0 mi North 18.4 mph 33.4 mph N/A   Scattered Clouds
3:53 PM 61.0 °F - 24.1 °F 24% 30.27 in 10.0 mi North 19.6 mph 27.6 mph N/A   Mostly Cloudy
4:53 PM 61.0 °F - 26.1 °F 26% 30.26 in 10.0 mi NNW 20.7 mph 27.6 mph N/A   Overcast
5:53 PM 61.0 °F - 25.0 °F 25% 30.25 in 10.0 mi North 10.4 mph - N/A   Mostly Cloudy
6:53 PM 60.1 °F - 26.1 °F 27% 30.25 in 10.0 mi North 19.6 mph - N/A   Partly Cloudy
7:53 PM 57.9 °F - 27.0 °F 31% 30.27 in 10.0 mi North 13.8 mph - N/A   Clear
8:53 PM 48.0 °F - 28.0 °F 46% 30.30 in 10.0 mi North 6.9 mph - N/A   Clear
9:53 PM 42.1 °F 38.4 °F 27.0 °F 55% 30.32 in 10.0 mi North 5.8 mph - N/A   Clear
10:53 PM 37.9 °F 33.5 °F 26.1 °F 62% 30.35 in 10.0 mi North 5.8 mph - N/A   Clear
11:53 PM 37.9 °F - 27.0 °F 65% 30.35 in 10.0 mi Calm Calm - N/A   Clear